Weather in Dvorec

Belarus     53°24′28″N   25°33′59″E
temp.,
°C
wind,
m/s
gust,
m/s
humid.,
%
clouds,
%
prec.,
mm/h
press.,
hPa
HPBL,
m
26 february, fri
fri2600:00+5wsw51098100 0.0 1023268
03:00+3wsw4109798 0.0 1022255
06:00+2wsw489998 0.0 1020162
09:00+3w5139994 0.0 1020325
12:00+5w6119791 0.0 1019456
15:00+6w7128295 0.0 1019692
18:00+5w6138369 0.0 1018520
21:00+3w6138884 0.0 1017586
27 february, sat
sat2700:00+3wnw61189100 0.1 1017621
03:00+3w61390100 0.1 1017587
06:00+3wnw6129198 0.0 1016631
09:00+3wnw6129399 0.1 1017765
12:00+1nw71192100 0.1 1018776
15:00+3nw71285100 0.1 1020854
18:00+3nw61178100 0.0 1021883
21:00+2nnw61278100 0.1 1023991
28 february, sun
sun2800:000nnw4108795 0.0 1025663
03:00−1nw499383 0.1 1027399
06:00−1nnw588996 0.0 1027589
09:00−1nw488898 0.1 1028523
12:00+2nw587187 0.0 1027627
15:00+4nw587575 0.0 1026794
18:00+4nw4118099 0.1 1025665
21:00+2nnw599899 0.9 1026504
1 march, mon
mon100:00+3nnw3897100 1.4 1027374
03:00+2nnw3693100 1.4 1029294
06:00+2nw479691 0.1 1030317
09:00+1wnw369596 0.1 1030259
12:00+3nw4791100 0.0 1031389
15:00+4nnw4786100 0.0 1031614
18:00+5nne258395 0.0 1031219
21:00+3w228984 0.0 103322
2 march, tue
tue200:00+2wnw349388 0.0 103389
03:00+1w379194 0.0 1033177
06:00+1wnw51388100 0.0 1032373
09:00+1wnw51391100 0.0 1033413
12:00+5nw697674 0.0 1033531
15:00+8nw696561 0.0 1033662
18:00+7nw497165 0.0 1032425
21:00+4nw348938 0.0 103275